GW1125 Weather Reports


time (UTC)temp
F
wind
direction
speed
knots
gust
knots
rain 1hr
in
rain 24hr
in
rain mn
in
humidity
%
barometer
mb
20260903081701 51 106 0.0 0.0 0.00 0.22 0.00 97 1006.5
20260903080645 51 106 0.0 0.0 0.00 0.22 0.00 98 1006.6
20260903075631 51 106 0.0 0.0 0.00 0.22 0.22 99 1006.7
20260903074615 51 106 0.0 0.0 0.00 0.22 0.22 99 1006.6
20260903073558 51 106 0.0 0.0 0.00 0.22 0.22 99 1006.5
20260903072545 51 106 0.0 0.0 0.00 0.22 0.22 99 1006.5
20260903071533 51 106 0.0 0.0 0.00 0.22 0.22 99 1006.5
20260903070517 51 106 0.0 0.0 0.00 0.22 0.22 99 1006.5
20260903065508 51 106 0.0 0.0 0.00 0.22 0.22 99 1006.4
20260903064502 51 106 0.0 0.0 0.00 0.22 0.22 99 1006.4
20260903063500 52 106 0.0 0.0 0.00 0.22 0.22 99 1006.5
20260903062451 52 106 0.0 0.0 0.00 0.22 0.22 99 1006.3
20260903061439 52 106 0.0 0.0 0.00 0.22 0.22 99 1006.5
20260903060432 52 106 0.0 0.0 0.00 0.22 0.22 99 1006.5
20260903055427 52 106 0.0 0.0 0.00 0.22 0.22 99 1006.6
20260903054412 52 106 0.0 0.0 0.00 0.22 0.22 99 1006.4
20260903053348 52 106 0.0 0.0 0.00 0.22 0.22 99 1006.5
20260903052315 52 106 0.0 0.0 0.00 0.22 0.22 99 1006.6
20260903051313 52 106 0.0 0.0 0.00 0.22 0.22 99 1006.5
20260903050307 52 106 0.0 0.0 0.00 0.22 0.22 99 1006.5
20260903045252 52 106 0.0 0.0 0.00 0.22 0.22 99 1006.4
20260903044234 53 106 0.0 0.0 0.00 0.22 0.22 99 1006.2
20260903043230 53 106 0.0 0.0 0.00 0.22 0.22 98 1006.1
20260903042230 53 106 0.0 0.0 0.00 0.22 0.22 98 1006.2
20260903041200 54 106 0.0 0.0 0.00 0.22 0.22 98 1006.0
20260903040147 54 106 0.0 0.0 0.00 0.22 0.22 98 1006.2
20260903035128 54 106 0.0 0.0 0.00 0.22 0.22 98 1005.9
20260903034115 55 105 0.0 0.0 0.00 0.22 0.22 98 1005.8
20260903033110 55 106 0.0 0.0 0.00 0.22 0.22 98 1005.5
20260903032036 55 106 0.0 0.0 0.00 0.22 0.22 98 1005.5
20260903031026 55 105 0.0 0.0 0.00 0.22 0.22 98 1005.1
20260903030006 56 107 0.0 0.0 0.00 0.22 0.22 98 1005.1
20260903024955 56 107 0.0 0.0 0.00 0.22 0.22 97 1005.2
20260903023949 56 107 0.0 0.0 0.00 0.22 0.22 97 1005.0
20260903022920 56 108 0.0 0.0 0.00 0.22 0.22 96 1004.9
20260903021910 56 108 0.0 0.0 0.00 0.22 0.22 96 1004.8
20260903020843 57 107 0.0 0.0 0.00 0.22 0.22 95 1004.8
20260903015831 58 111 0.0 0.0 0.00 0.22 0.22 95 1004.7
20260903014802 58 107 0.0 0.0 0.00 0.22 0.22 94 1004.7
20260903013723 58 102 0.0 0.0 0.01 0.22 0.22 93 1004.5
20260903012659 58 110 0.0 0.0 0.05 0.22 0.22 93 1004.3
20260903011644 59 108 0.0 0.0 0.05 0.22 0.22 93 1004.1
20260903010621 58 113 0.0 0.0 0.05 0.22 0.22 96 1004.1
20260903005600 57 108 0.0 0.0 0.05 0.22 0.22 96 1003.9
20260903004557 57 101 0.9 0.9 0.05 0.22 0.22 97 1003.9
20260903003534 58 131 0.9 0.9 0.03 0.20 0.20 98 1004.0
20260903002516 59 104 0.0 0.0 0.00 0.17 0.17 98 1003.7
20260903001512 59 107 0.0 0.0 0.00 0.17 0.17 98 1003.0
20260903000501 59 105 0.0 0.0 0.00 0.17 0.17 98 1002.9
20260902235441 59 109 0.0 0.0 0.01 0.17 0.17 98 1002.9
20260902234432 59 109 0.0 0.0 0.02 0.17 0.17 98 1002.9
20260902233424 59 106 0.0 0.0 0.04 0.17 0.17 98 1003.1
20260902232404 59 106 0.0 0.0 0.05 0.17 0.17 98 1003.0
20260902231325 59 105 0.0 0.0 0.07 0.17 0.17 97 1002.7
20260902230309 58 105 0.0 0.0 0.08 0.17 0.17 97 1002.9
20260902225250 59 106 0.0 0.0 0.09 0.16 0.16 97 1003.3
20260902224220 59 105 0.0 0.0 0.10 0.15 0.15 97 1003.3
20260902223203 59 108 0.0 0.0 0.09 0.13 0.13 96 1003.2
20260902222154 60 106 0.0 0.0 0.07 0.11 0.11 96 1003.1
20260902221139 60 105 0.0 0.0 0.07 0.10 0.10 95 1003.0
20260902220111 60 104 0.0 0.0 0.07 0.09 0.09 94 1003.3
20260902215041 60 102 0.0 0.0 0.06 0.07 0.07 92 1003.2
20260902214012 61 107 0.0 0.0 0.04 0.05 0.05 91 1003.4
20260902213005 61 106 0.0 0.0 0.03 0.04 0.04 91 1003.4
20260902211940 61 109 0.0 0.0 0.03 0.04 0.04 88 1003.3
20260902210911 61 117 0.9 0.9 0.02 0.03 0.03 86 1003.2
20260902205900 62 103 0.0 0.9 0.01 0.02 0.02 84 1003.4
20260902204832 63 110 0.0 0.9 0.00 0.01 0.01 79 1003.3
20260902203757 64 108 0.0 0.0 0.01 0.01 0.01 80 1003.1
20260902202718 65 110 0.0 0.0 0.01 0.01 0.01 77 1003.1
20260902201712 65 102 0.9 1.7 0.01 0.01 0.01 74 1003.0
20260902200706 64 112 0.9 0.9 0.01 0.01 0.01 76 1003.1
20260902195647 65 105 0.0 0.0 0.01 0.01 0.01 79 1003.6
20260902194630 64 109 0.0 0.0 0.01 0.01 0.01 78 1003.4
20260902193625 63 103 0.0 0.0 0.00 0.00 0.00 83 1003.5
20260902192612 63 108 0.0 0.0 0.00 0.00 0.00 80 1003.7
20260902191612 69 151 0.0 0.9 0.00 0.00 0.00 59 1003.5
20260902190603 69 118 0.0 0.0 0.00 0.00 0.00 57 1003.6
20260902185529 69 105 0.0 0.0 0.00 0.00 0.00 62 1003.6
20260902184524 68 110 0.0 0.0 0.00 0.00 0.00 63 1003.6
20260902183506 67 109 0.0 0.0 0.00 0.00 0.00 66 1003.8
20260902182440 66 109 0.0 0.0 0.00 0.00 0.00 70 1003.7
20260902181430 66 108 0.0 0.0 0.00 0.00 0.00 70 1003.9
20260902180406 64 109 0.0 0.0 0.00 0.00 0.00 74 1003.9
20260902175336 63 109 0.0 0.0 0.00 0.00 0.00 75 1004.1
20260902174336 63 109 0.0 0.0 0.00 0.00 0.00 77 1004.2
20260902173320 64 109 0.0 0.0 0.00 0.00 0.00 76 1004.3
20260902172316 64 110 0.0 0.0 0.00 0.00 0.00 75 1004.3
20260902171245 63 110 0.0 0.0 0.00 0.00 0.00 77 1004.6
20260902170235 63 110 0.0 0.0 0.00 0.00 0.00 78 1004.5
20260902165209 63 107 0.0 0.0 0.00 0.00 0.00 79 1004.9
20260902164156 63 107 0.0 0.0 0.00 0.00 0.00 80 1004.7
20260902163122 63 107 0.0 0.0 0.00 0.00 0.00 80 1004.8
20260902162111 63 107 0.0 0.0 0.00 0.00 0.00 76 1004.9
20260902161039 64 108 0.0 0.0 0.00 0.00 0.00 75 1005.0
20260902160024 63 111 0.0 0.0 0.00 0.00 0.00 76 1005.1
20260902155021 63 116 0.0 0.0 0.00 0.00 0.00 79 1005.1
20260902154016 62 107 0.0 0.0 0.00 0.00 0.00 82 1005.2
20260902153001 61 102 0.0 0.0 0.00 0.00 0.00 86 1005.1
20260902151957 59 103 0.0 0.0 0.00 0.00 0.00 93 1005.2
20260902150950 58 102 0.0 0.0 0.00 0.00 0.00 97 1005.4
20260902145908 57 105 0.0 0.0 0.00 0.00 0.00 98 1005.9
20260902144844 57 107 0.0 0.0 0.00 0.00 0.00 98 1006.0
20260902143841 56 107 0.0 0.0 0.00 0.00 0.00 98 1006.1
20260902142831 56 107 0.0 0.0 0.00 0.00 0.00 98 1006.1
20260902141828 55 107 0.0 0.0 0.00 0.00 0.00 98 1006.3
20260902140825 55 107 0.0 0.0 0.00 0.00 0.00 98 1006.2
20260902135825 55 107 0.0 0.0 0.00 0.00 0.00 98 1006.2
20260902134816 55 107 0.0 0.0 0.00 0.00 0.00 98 1006.4
20260902133753 55 116 0.0 0.0 0.00 0.00 0.00 98 1006.2
20260902132726 55 116 0.0 0.0 0.00 0.00 0.00 98 1006.3
20260902131711 55 116 0.0 0.0 0.00 0.00 0.00 98 1006.4
20260902130644 55 116 0.0 0.0 0.00 0.00 0.00 97 1006.3
20260902125642 55 116 0.0 0.0 0.00 0.00 0.00 97 1006.5
20260902124620 55 116 0.0 0.0 0.00 0.00 0.00 97 1006.7
20260902123547 56 116 0.0 0.0 0.00 0.00 0.00 97 1006.8
20260902122511 56 116 0.0 0.0 0.00 0.00 0.00 97 1006.7
20260902121451 56 116 0.0 0.0 0.00 0.00 0.00 97 1006.8
20260902120441 56 116 0.0 0.0 0.00 0.00 0.00 97 1006.9
20260902115440 56 116 0.0 0.0 0.00 0.00 0.00 96 1006.9
20260902114419 56 116 0.0 0.0 0.00 0.00 0.00 96 1006.9
20260902113344 56 117 0.0 0.0 0.00 0.00 0.00 96 1007.0
20260902112313 57 116 0.0 0.0 0.00 0.00 0.00 95 1007.1
20260902111304 57 116 0.0 0.0 0.00 0.00 0.00 95 1007.2
20260902110242 57 116 0.0 0.0 0.00 0.00 0.00 95 1007.3
20260902105240 58 116 0.0 0.0 0.00 0.00 0.00 95 1007.2
20260902104212 57 116 0.0 0.0 0.00 0.00 0.00 95 1007.4
20260902103208 57 117 0.0 0.0 0.00 0.00 0.00 95 1007.5
20260902102149 57 117 0.0 0.0 0.00 0.00 0.00 95 1007.6
20260902101131 57 117 0.0 0.0 0.00 0.00 0.00 95 1007.6
20260902100112 58 117 0.0 0.0 0.00 0.00 0.00 94 1007.6
20260902095110 58 117 0.0 0.0 0.00 0.00 0.00 94 1007.8
20260902094052 58 117 0.0 0.0 0.00 0.00 0.00 93 1007.7
20260902093021 58 116 0.0 0.0 0.00 0.00 0.00 93 1007.5
20260902091944 59 116 0.0 0.0 0.00 0.00 0.00 93 1007.9
20260902090931 59 116 0.0 0.0 0.00 0.00 0.00 93 1007.8
20260902085915 59 117 0.0 0.0 0.00 0.00 0.00 93 1007.8
20260902084847 59 119 0.0 0.0 0.00 0.00 0.00 93 1008.0
20260902083828 59 119 0.0 0.0 0.00 0.00 0.00 93 1008.1
20260902082809 59 119 0.0 0.0 0.00 0.00 0.00 92 1008.3